2016-04-06 00:05:35 r, 19.15m,0000000002Hz,0000247876c,0000000.538s, 013.8C,00002191
2016-04-06 00:15:34 r, 19.14m,0000000002Hz,0000246476c,0000000.535s, 013.5C,00002191
2016-04-06 00:25:34 r, 19.10m,0000000002Hz,0000237199c,0000000.515s, 013.5C,00002191
2016-04-06 00:35:34 r, 19.09m,0000000002Hz,0000236360c,0000000.513s, 013.5C,00002191
2016-04-06 00:45:34 r, 19.10m,0000000002Hz,0000236966c,0000000.514s, 013.8C,00002191
2016-04-06 00:55:34 r, 19.06m,0000000002Hz,0000227427c,0000000.494s, 013.8C,00002191
2016-04-06 01:05:35 r, 19.23m,0000000002Hz,0000266906c,0000000.579s, 013.8C,00002191
2016-04-06 01:15:34 r, 19.03m,0000000002Hz,0000222606c,0000000.483s, 013.8C,00002191
2016-04-06 01:25:34 r, 19.11m,0000000002Hz,0000238156c,0000000.517s, 013.8C,00002191
2016-04-06 01:35:34 r, 19.18m,0000000002Hz,0000255327c,0000000.554s, 013.8C,00002191
2016-04-06 01:45:34 r, 19.20m,0000000002Hz,0000260840c,0000000.566s, 013.8C,00002191
2016-04-06 01:55:34 r, 19.55m,0000000001Hz,0000358977c,0000000.779s, 013.8C,00002191
2016-04-06 02:05:34 r, 19.46m,0000000002Hz,0000332169c,0000000.721s, 013.8C,00002191
2016-04-06 02:15:34 r, 19.59m,0000000001Hz,0000370705c,0000000.804s, 013.5C,00002191
2016-04-06 02:25:34 r, 19.31m,0000000002Hz,0000289939c,0000000.629s, 013.5C,00002191
2016-04-06 02:35:34 r, 19.18m,0000000001Hz,0000254265c,0000000.552s, 013.5C,00002191
2016-04-06 02:45:34 r, 19.36m,0000000001Hz,0000301545c,0000000.654s, 013.5C,00002191
2016-04-06 02:55:34 r, 19.11m,0000000002Hz,0000238969c,0000000.519s, 013.5C,00002191
2016-04-06 03:05:34 r, 18.95m,0000000002Hz,0000206312c,0000000.448s, 013.5C,00002191
2016-04-06 03:15:34 r, 19.28m,0000000002Hz,0000282328c,0000000.613s, 013.5C,00002191
2016-04-06 03:25:36 r, 19.13m,0000000002Hz,0000243835c,0000000.529s, 013.5C,00002191
2016-04-06 03:35:35 r, 19.05m,0000000002Hz,0000225653c,0000000.490s, 013.5C,00002191
2016-04-06 03:45:34 r, 19.06m,0000000002Hz,0000228389c,0000000.496s, 013.5C,00002191
2016-04-06 03:55:34 r, 19.31m,0000000002Hz,0000288943c,0000000.627s, 013.5C,00002191
2016-04-06 04:05:34 r, 19.63m,0000000001Hz,0000386654c,0000000.839s, 013.5C,00002191
2016-04-06 04:15:34 r, 19.46m,0000000002Hz,0000331042c,0000000.718s, 013.5C,00002191
2016-04-06 04:25:34 r, 19.65m,0000000001Hz,0000394194c,0000000.855s, 013.5C,00002191
2016-04-06 04:35:34 r, 19.68m,0000000001Hz,0000407209c,0000000.884s, 013.5C,00002191
2016-04-06 04:45:34 r, 19.56m,0000000002Hz,0000362846c,0000000.787s, 013.5C,00002191
2016-04-06 04:55:34 r, 19.44m,0000000002Hz,0000324232c,0000000.704s, 013.5C,00002191
2016-04-06 05:05:34 r, 19.68m,0000000001Hz,0000406940c,0000000.883s, 013.5C,00002191
2016-04-06 05:15:34 r, 19.46m,0000000002Hz,0000331034c,0000000.718s, 013.5C,00002191
2016-04-06 05:25:34 r, 19.53m,0000000001Hz,0000353340c,0000000.767s, 013.5C,00002191
2016-04-06 05:35:34 r, 19.17m,0000000001Hz,0000253507c,0000000.550s, 013.2C,00002191
2016-04-06 05:45:35 r, 18.61m,0000000003Hz,0000152684c,0000000.331s, 013.2C,00002191
2016-04-06 05:55:34 r, 17.42m,0000000009Hz,0000050898c,0000000.110s, 013.2C,00002191
2016-04-06 06:05:34 r, 16.02m,0000000032Hz,0000014047c,0000000.030s, 013.2C,00002191
2016-04-06 06:15:34 r, 14.24m,0000000170Hz,0000000000c,0000000.000s, 013.2C,00002191
2016-04-06 06:25:34 r, 12.37m,0000000952Hz,0000000000c,0000000.000s, 012.8C,00002191
2016-04-06 06:35:34 r, 10.44m,0000005652Hz,0000000000c,0000000.000s, 013.2C,00002191
2016-04-06 06:45:34 r, 08.89m,0000023494Hz,0000000000c,0000000.000s, 013.2C,00002191
2016-04-06 06:55:34 r, 07.73m,0000068915Hz,0000000000c,0000000.000s, 013.2C,00002191
2016-04-06 07:05:34 r, 06.91m,0000145610Hz,0000000000c,0000000.000s, 012.8C,00002191
2016-04-06 07:15:34 r, 06.11m,0000304104Hz,0000000000c,0000000.000s, 013.2C,00002191
2016-04-06 07:25:34 r, 00.00m,0000462795Hz,0000000000c,0000000.000s, 013.2C,00002191
2016-04-06 07:35:34 r, 00.00m,0000596669Hz,0000000000c,0000000.000s, 013.2C,00002191
2016-04-06 07:45:36 r, 00.00m,0000596677Hz,0000000000c,0000000.000s, 013.5C,00002191
2016-04-06 07:55:34 r, 00.00m,0000596627Hz,0000000000c,0000000.000s, 013.5C,00002191
2016-04-06 08:05:34 r, 00.00m,0000596605Hz,0000000000c,0000000.000s, 013.5C,00002191
2016-04-06 08:15:34 r, 00.00m,0000596624Hz,0000000000c,0000000.000s, 013.5C,00002191
2016-04-06 08:25:34 r, 00.00m,0000596671Hz,0000000000c,0000000.000s, 013.5C,00002191
2016-04-06 08:35:34 r, 00.00m,0000596503Hz,0000000000c,0000000.000s, 013.8C,00002191
2016-04-06 08:45:34 r, 00.00m,0000596545Hz,0000000000c,0000000.000s, 013.8C,00002191
2016-04-06 08:55:34 r, 00.00m,0000596480Hz,0000000000c,0000000.000s, 014.1C,00002191
2016-04-06 09:05:34 r, 00.00m,0000596438Hz,0000000000c,0000000.000s, 014.5C,00002191
2016-04-06 09:15:34 r, 00.00m,0000596505Hz,0000000000c,0000000.000s, 014.5C,00002191
2016-04-06 09:25:34 r, 00.00m,0000596464Hz,0000000000c,0000000.000s, 014.5C,00002191
2016-04-06 09:35:34 r, 00.00m,0000596549Hz,0000000000c,0000000.000s, 014.8C,00002191
2016-04-06 09:45:34 r, 00.00m,0000596392Hz,0000000000c,0000000.000s, 014.8C,00002191
2016-04-06 09:55:34 r, 00.00m,0000596301Hz,0000000000c,0000000.000s, 015.4C,00002191
2016-04-06 10:05:34 r, 00.00m,0000596275Hz,0000000000c,0000000.000s, 016.4C,00002191
2016-04-06 10:15:34 r, 00.00m,0000596154Hz,0000000000c,0000000.000s, 017.7C,00002191
2016-04-06 10:25:34 r, 00.00m,0000595882Hz,0000000000c,0000000.000s, 019.9C,00002191
2016-04-06 10:35:34 r, 00.00m,0000595726Hz,0000000000c,0000000.000s, 021.5C,00002191
2016-04-06 10:45:34 r, 00.00m,0000595760Hz,0000000000c,0000000.000s, 021.5C,00002191
2016-04-06 10:55:34 r, 00.00m,0000595814Hz,0000000000c,0000000.000s, 021.5C,00002191
2016-04-06 11:05:34 r, 00.00m,0000595811Hz,0000000000c,0000000.000s, 021.2C,00002191
2016-04-06 11:15:35 r, 00.00m,0000595775Hz,0000000000c,0000000.000s, 021.9C,00002191
2016-04-06 11:25:34 r, 00.00m,0000595737Hz,0000000000c,0000000.000s, 021.9C,00002191
2016-04-06 11:35:34 r, 00.00m,0000595660Hz,0000000000c,0000000.000s, 022.5C,00002191
2016-04-06 11:45:35 r, 00.00m,0000595365Hz,0000000000c,0000000.000s, 024.8C,00002191
2016-04-06 11:55:34 r, 00.00m,0000595340Hz,0000000000c,0000000.000s, 025.4C,00002191
2016-04-06 12:05:34 r, 00.00m,0000595263Hz,0000000000c,0000000.000s, 026.1C,00002191
2016-04-06 12:15:34 r, 00.00m,0000595198Hz,0000000000c,0000000.000s, 027.7C,00002191
2016-04-06 12:25:34 r, 00.00m,0000595192Hz,0000000000c,0000000.000s, 026.7C,00002191
2016-04-06 12:35:34 r, 00.00m,0000595239Hz,0000000000c,0000000.000s, 025.7C,00002191
2016-04-06 12:45:34 r, 00.00m,0000595460Hz,0000000000c,0000000.000s, 024.4C,00002191
2016-04-06 12:55:34 r, 00.00m,0000595523Hz,0000000000c,0000000.000s, 024.1C,00002191
2016-04-06 13:05:34 r, 00.00m,0000595764Hz,0000000000c,0000000.000s, 022.8C,00002191
2016-04-06 13:15:34 r, 00.00m,0000595765Hz,0000000000c,0000000.000s, 021.5C,00002191
2016-04-06 13:25:34 r, 00.00m,0000595847Hz,0000000000c,0000000.000s, 020.9C,00002191
2016-04-06 13:35:34 r, 00.00m,0000595735Hz,0000000000c,0000000.000s, 021.5C,00002191
2016-04-06 13:45:34 r, 00.00m,0000595614Hz,0000000000c,0000000.000s, 022.2C,00002191
2016-04-06 13:55:34 r, 00.00m,0000595591Hz,0000000000c,0000000.000s, 022.5C,00002191
2016-04-06 14:05:34 r, 00.00m,0000595588Hz,0000000000c,0000000.000s, 022.8C,00002191
2016-04-06 14:15:36 r, 00.00m,0000595535Hz,0000000000c,0000000.000s, 022.8C,00002191
2016-04-06 14:25:34 r, 00.00m,0000595598Hz,0000000000c,0000000.000s, 022.5C,00002191
2016-04-06 14:35:34 r, 00.00m,0000595708Hz,0000000000c,0000000.000s, 022.5C,00002191
2016-04-06 14:45:35 r, 00.00m,0000595561Hz,0000000000c,0000000.000s, 022.8C,00002191
2016-04-06 14:55:34 r, 00.00m,0000595450Hz,0000000000c,0000000.000s, 023.2C,00002191
2016-04-06 15:05:34 r, 00.00m,0000595427Hz,0000000000c,0000000.000s, 023.5C,00002191
2016-04-06 15:15:35 r, 00.00m,0000595478Hz,0000000000c,0000000.000s, 023.5C,00002191
2016-04-06 15:25:34 r, 00.00m,0000595440Hz,0000000000c,0000000.000s, 023.5C,00002191
2016-04-06 15:35:34 r, 00.00m,0000595367Hz,0000000000c,0000000.000s, 024.1C,00002191
2016-04-06 15:45:35 r, 00.00m,0000595355Hz,0000000000c,0000000.000s, 024.4C,00002191
2016-04-06 15:55:34 r, 00.00m,0000595492Hz,0000000000c,0000000.000s, 024.1C,00002191
2016-04-06 16:05:34 r, 00.00m,0000595433Hz,0000000000c,0000000.000s, 023.8C,00002191
2016-04-06 16:15:34 r, 00.00m,0000595488Hz,0000000000c,0000000.000s, 023.8C,00002191
2016-04-06 16:25:34 r, 00.00m,0000595630Hz,0000000000c,0000000.000s, 023.5C,00002191
2016-04-06 16:35:34 r, 00.00m,0000595669Hz,0000000000c,0000000.000s, 022.2C,00002191
2016-04-06 16:45:35 r, 00.00m,0000595709Hz,0000000000c,0000000.000s, 022.2C,00002191
2016-04-06 16:55:34 r, 00.00m,0000595820Hz,0000000000c,0000000.000s, 021.2C,00002191
2016-04-06 17:05:34 r, 00.00m,0000595862Hz,0000000000c,0000000.000s, 020.6C,00002191
2016-04-06 17:15:34 r, 00.00m,0000595982Hz,0000000000c,0000000.000s, 019.9C,00002191
2016-04-06 17:25:34 r, 00.00m,0000595984Hz,0000000000c,0000000.000s, 019.6C,00002191
2016-04-06 17:35:34 r, 00.00m,0000596039Hz,0000000000c,0000000.000s, 019.3C,00002191
2016-04-06 17:45:35 r, 00.00m,0000596015Hz,0000000000c,0000000.000s, 019.3C,00002191
2016-04-06 17:55:34 r, 00.00m,0000596020Hz,0000000000c,0000000.000s, 018.6C,00002191
2016-04-06 18:05:34 r, 00.00m,0000596069Hz,0000000000c,0000000.000s, 018.3C,00002191
2016-04-06 18:15:34 r, 00.00m,0000596115Hz,0000000000c,0000000.000s, 018.0C,00002191
2016-04-06 18:25:34 r, 00.00m,0000596146Hz,0000000000c,0000000.000s, 017.7C,00002191
2016-04-06 18:35:34 r, 00.00m,0000596219Hz,0000000000c,0000000.000s, 017.4C,00002191
2016-04-06 18:45:35 r, 00.00m,0000596259Hz,0000000000c,0000000.000s, 017.4C,00002191
2016-04-06 18:55:34 r, 00.00m,0000596332Hz,0000000000c,0000000.000s, 017.0C,00002191
2016-04-06 19:05:34 r, 00.00m,0000596259Hz,0000000000c,0000000.000s, 017.0C,00002191
2016-04-06 19:15:36 r, 00.00m,0000596282Hz,0000000000c,0000000.000s, 016.7C,00002191
2016-04-06 19:25:34 r, 00.00m,0000596350Hz,0000000000c,0000000.000s, 016.4C,00002191
2016-04-06 19:35:34 r, 00.00m,0000430913Hz,0000000000c,0000000.000s, 016.4C,00002191
2016-04-06 19:45:36 r, 06.23m,0000272448Hz,0000000000c,0000000.000s, 016.1C,00002191
2016-04-06 19:55:34 r, 06.78m,0000164686Hz,0000000000c,0000000.000s, 015.7C,00002191
2016-04-06 20:05:34 r, 07.32m,0000100037Hz,0000000000c,0000000.000s, 015.1C,00002191
2016-04-06 20:15:35 r, 08.46m,0000035211Hz,0000000000c,0000000.000s, 015.1C,00002191
2016-04-06 20:25:34 r, 09.99m,0000008569Hz,0000000000c,0000000.000s, 014.5C,00002191
2016-04-06 20:35:34 r, 12.23m,0000001085Hz,0000000000c,0000000.000s, 014.1C,00002191
2016-04-06 20:45:35 r, 14.66m,0000000114Hz,0000004028c,0000000.009s, 014.5C,00002191
2016-04-06 20:55:34 r, 16.02m,0000000032Hz,0000014023c,0000000.030s, 014.1C,00002191
2016-04-06 21:05:34 r, 17.36m,0000000010Hz,0000048100c,0000000.104s, 014.1C,00002191
2016-04-06 21:15:34 r, 18.96m,0000000002Hz,0000209390c,0000000.454s, 014.1C,00002191
2016-04-06 21:25:35 r, 19.68m,0000000001Hz,0000406032c,0000000.881s, 014.1C,00002191
2016-04-06 21:35:34 r, 19.90m,0000000001Hz,0000496226c,0000001.077s, 014.1C,00002191
2016-04-06 21:45:34 r, 19.90m,0000000001Hz,0000498216c,0000001.081s, 014.1C,00002191
2016-04-06 21:55:35 r, 19.94m,0000000001Hz,0000514200c,0000001.116s, 014.1C,00002191
2016-04-06 22:05:34 r, 20.00m,0000000000Hz,0000546595c,0000001.186s, 014.1C,00002191
2016-04-06 22:15:34 r, 20.01m,0000000001Hz,0000551609c,0000001.197s, 014.1C,00002191
2016-04-06 22:25:34 r, 19.94m,0000000001Hz,0000514362c,0000001.116s, 014.1C,00002191
2016-04-06 22:35:34 r, 20.04m,0000000001Hz,0000569119c,0000001.235s, 014.1C,00002191
2016-04-06 22:45:34 r, 19.94m,0000000001Hz,0000513648c,0000001.115s, 014.1C,00002191
2016-04-06 22:55:34 r, 19.91m,0000000000Hz,0000500205c,0000001.086s, 014.1C,00002191
2016-04-06 23:05:34 r, 19.94m,0000000001Hz,0000515745c,0000001.119s, 014.1C,00002191
2016-04-06 23:15:34 r, 19.96m,0000000001Hz,0000525195c,0000001.140s, 014.1C,00002191
2016-04-06 23:25:34 r, 19.88m,0000000001Hz,0000487804c,0000001.059s, 014.1C,00002191
2016-04-06 23:35:34 r, 19.97m,0000000001Hz,0000529020c,0000001.148s, 014.1C,00002191
2016-04-06 23:45:34 r, 20.04m,0000000001Hz,0000567529c,0000001.232s, 014.1C,00002191
2016-04-06 23:55:34 r, 19.97m,0000000001Hz,0000530748c,0000001.152s, 013.8C,00002191
